Flag for Egypt Weather past 2 weeks in Al Jizah, Egypt

97 °F


Feels Like: 96 °F
Forecast: 72 / 91 °F
Wind: 12 mph from East

Location: Cairo Airport

Current Time: Oct 13, 2015 at 2:42:50 PM

Latest Report: Oct 13, 2015 at 2:00 PM

Visibility: 10 mi

Pressure: 29.92 "Hg

Humidity: 27%

Dew point: 57 °F

Location of Al JizahLocation

Historic Weather in Al Jizah — Graph


Al Jizah temperature yesterday

Maximum temperature yesterday: 91 °F (at 1:30 PM)
Minimum temperature yesterday: 73 °F (at 2:00 AM)
Average temperature yesterday: 82 °F

Past Weeks' High & Low Weather Summary

High97 °F (Sep 29, 2:00 PM)100% (Oct 12, 7:30 AM)30.15 "Hg (Oct 12, 7:30 AM)
Low66 °F (Oct 8, 7:00 PM)23% (Oct 13, 1:30 PM)29.80 "Hg (Oct 6, 3:00 PM)
Average80 °F59%29.97 "Hg
* Reported Sep 28 1:00 PM — Oct 13 1:30 PM, Al Jizah, Weather by CustomWeather, © 2015

Note: Actual official high and low records may vary slightly from our data, if they occured in-between our weather recording intervals... More about our weather records


Al Jizah weather history for previous 24 hours

Time TempWeatherWind HumidityBarometerVisibility
1:30 PM
Tue, Oct 13
93 °FSunny.6 mph23%29.92 "Hg10 mi
1:00 PM91 °FSunny.6 mph26%29.92 "Hg10 mi
12:30 PM91 °FSunny.6 mph26%29.95 "Hg10 mi
12:00 PM90 °FSunny.3 mph31%29.95 "Hg10 mi
11:00 AM90 °FSunny.14 mph38%29.98 "Hg10 mi
10:30 AM86 °FSunny.8 mph46%29.98 "Hg10 mi
10:00 AM84 °FScattered clouds.10 mph48%29.98 "HgN/A
9:30 AM81 °FScattered clouds.10 mph54%29.98 "HgN/A
9:00 AM79 °FScattered clouds.13 mph70%29.98 "HgN/A
8:30 AM77 °FScattered clouds.13 mph83%29.98 "HgN/A
8:00 AM75 °FScattered clouds.10 mph89%29.98 "HgN/A
7:00 AM73 °FScattered clouds.8 mph94%29.98 "HgN/A
6:30 AM73 °FScattered clouds.8 mph94%29.98 "HgN/A
6:00 AM72 °FScattered clouds.9 mph100%29.95 "HgN/A
5:30 AM72 °FClear.8 mph100%29.98 "Hg10 mi
5:00 AM72 °FClear.6 mph88%29.98 "Hg10 mi
4:30 AM72 °FClear.5 mph88%29.98 "Hg10 mi
4:00 AM73 °FClear.6 mph89%29.98 "Hg10 mi
3:30 AM72 °FClear.6 mph88%29.98 "Hg10 mi
3:00 AM73 °FClear.8 mph83%29.98 "Hg10 mi
2:30 AM73 °FClear.9 mph83%29.98 "Hg10 mi
2:00 AM75 °FClear.6 mph78%29.98 "Hg10 mi
1:30 AM75 °FClear.9 mph83%29.98 "Hg10 mi
1:00 AM75 °FClear.9 mph83%29.98 "Hg10 mi
12:30 AM75 °FClear.7 mph74%30.01 "Hg10 mi
12:00 AM77 °FClear.6 mph74%30.01 "Hg10 mi
11:30 PM
Mon, Oct 12
77 °FClear.10 mph65%30.01 "Hg10 mi
11:00 PM77 °FClear.9 mph69%30.01 "Hg10 mi
10:30 PM77 °FClear.12 mph69%30.01 "Hg10 mi
10:00 PM79 °FClear.15 mph61%30.01 "Hg10 mi
9:30 PM81 °FClear.17 mph58%30.01 "Hg10 mi
9:00 PM82 °FClear.13 mph55%30.01 "Hg10 mi
8:30 PM82 °FPassing clouds.13 mph55%29.98 "HgN/A
8:00 PM82 °FPassing clouds.12 mph55%29.98 "HgN/A
7:30 PM84 °FPassing clouds.9 mph48%29.98 "HgN/A
7:00 PM86 °FPassing clouds.12 mph46%29.95 "HgN/A
6:30 PM88 °FPassing clouds.9 mph40%29.95 "HgN/A
6:00 PM90 °FPassing clouds.8 mph38%29.95 "HgN/A
5:30 PM90 °FPassing clouds.8 mph38%29.92 "HgN/A
5:00 PM91 °FScattered clouds.9 mph38%29.92 "HgN/A
4:30 PM91 °FScattered clouds.5 mph36%29.92 "HgN/A
4:00 PM91 °FScattered clouds.5 mph36%29.92 "HgN/A
3:30 PM91 °FScattered clouds.5 mph36%29.92 "HgN/A
3:00 PM91 °FScattered clouds.5 mph36%29.92 "HgN/A
2:30 PM91 °FScattered clouds.5 mph36%29.92 "HgN/A
2:00 PM91 °FScattered clouds.6 mph38%29.92 "HgN/A
Weather by CustomWeather, © 2015

See weather overviewHow to use our weather pages